This demonstration page uses our WeatherBlox Daily Observations layout. Learn more.

39.29038, -76.61219

Hourly Observations for March 7, 2019

Temp ( °F °C ) Dew Point ( °F °C ) Humidity (%) Winds ( mph kmh ) Pressure ( in mb ) Visibility ( mi km ) Precip ( " mm )
12:54 am 00:54 undefined 25 -3.9 5 -15 42 42 undefined N/A 30.4 1029 N/A 0 0
1:54 am 01:54 undefined 25 -3.9 6 -14.4 44 44 undefined N/A 30.28 1025 N/A 0 0
2:54 am 02:54 undefined 24 -4.4 7 -13.9 48 48 undefined N/A 30.28 1025 N/A 0 0
3:51 am 03:51 undefined 25 -4 9 -13 50 50 undefined N/A 30.4 1030 N/A 0 0
3:54 am 03:54 undefined 25 -3.9 8 -13.3 48 48 undefined N/A 30.39 1029 N/A 0 0
4:54 am 04:54 undefined 25 -3.9 8 -13.3 48 48 undefined N/A 30.28 1025 N/A 0 0
5:54 am 05:54 undefined 26 -3.3 9 -12.8 48 48 undefined N/A 30.32 1027 N/A 0 0
6:54 am 06:54 undefined 27 -2.8 9 -12.8 46 46 undefined N/A 30.34 1027 N/A 0 0
7:54 am 07:54 undefined 28 -2.2 10 -12.2 47 47 undefined N/A 30.35 1028 N/A 0 0
8:54 am 08:54 undefined 29 -1.7 9 -12.8 43 43 undefined N/A 30.36 1028 N/A 0 0
9:54 am 09:54 undefined 33 0.6 11 -11.7 40 40 undefined N/A 30.39 1029 N/A 0 0
10:54 am 10:54 undefined 37 2.8 12 -11.1 36 36 undefined N/A 30.37 1029 N/A 0 0
11:54 am 11:54 undefined 37 2.8 10 -12.2 33 33 undefined N/A 30.34 1027 N/A 0 0
12:54 pm 12:54 undefined 38 3.3 11 -11.7 33 33 undefined N/A 30.31 1027 N/A 0 0
1:54 pm 13:54 undefined 38 3.3 11 -11.7 33 33 undefined N/A 30.28 1026 N/A 0 0
2:54 pm 14:54 undefined 41 5 11 -11.7 29 29 undefined N/A 30.3 1026 N/A 0 0
3:54 pm 15:54 undefined 39 3.9 10 -12.2 30 30 undefined N/A 30.26 1025 N/A 0 0
4:54 pm 16:54 undefined 40 4.4 10 -12.2 29 29 undefined N/A 30.27 1025 N/A 0 0
5:54 pm 17:54 undefined 39 3.9 10 -12.2 30 30 undefined N/A 30.3 1026 N/A 0 0
6:54 pm 18:54 undefined 37 2.8 12 -11.1 36 36 undefined N/A 30.32 1027 N/A 0 0
7:54 pm 19:54 undefined 37 2.8 11 -11.7 34 34 undefined N/A 30.34 1027 N/A 0 0
8:54 pm 20:54 undefined 36 2.2 11 -11.7 35 35 undefined N/A 30.34 1028 N/A 0 0
9:54 pm 21:54 undefined 36 2.2 11 -11.7 35 35 undefined N/A 30.36 1028 N/A 0 0
10:54 pm 22:54 undefined 35 1.7 12 -11.1 38 38 undefined N/A 30.39 1029 N/A 0 0
11:54 pm 23:54 undefined 35 1.7 12 -11.1 38 38 undefined N/A 30.4 1030 N/A 0 0

Powered by AerisWeather